Location: LDNL
(36.4545°S, 141.6685°E)
Time: 13:02:05
(UTC+10:00)

Vanguard 3 - Pass Details

Date: 04 February 2022
Orbit: 508 x 3258 km, 33.3° (Epoch: 25 May)

Event Time Altitude Azimuth Distance (km) Brightness Sun altitude
Rises 07:13:05 0° 270° (W) 5,916 10.9 3.0°
Reaches altitude 10° 07:18:50 10° 287° (WNW) 5,375 10.7 4.1°
Maximum altitude 07:27:53 17° 321° (NW) 5,304 10.9 5.9°
Drops below altitude 10° 07:38:14 10° 353° (N) 6,173 11.4 7.9°
Sets 07:46:00 0° 10° (N) 7,166 11.9 9.4°
